ERBS - Orbit

View from above orbital plane
View from above orbital plane
View from above satellite
View from above satellite

Ground track
Ground track

The orbit data is extracted from the following two-line orbital elements,

1 15354U 84108B   13142.77524758  .00005473  00000-0  24212-3 0  2261
2 15354 057.0196 328.1775 0017718 176.8687 183.2473 15.23074275570059
Epoch (UTC): 22 May 2013 18:36:21
Eccentricity: 0.0017718
inclination: 57.0196°
perigee height: 484 km
apogee height: 509 km
right ascension of ascending node: 328.1775°
argument of perigee: 176.8687°
revolutions per day: 15.23074275
mean anomaly at epoch: 183.2473°
orbit number at epoch: 57005

The dashed part of the orbit path shows where the satellite is in the earth's shadow,  

Developed and maintained by Chris Peat, Heavens-Above GmbH. Please read the updated FAQ before sending e-mail. Imprint. DLR